Regional Weather Roundup
Issued by NWS

Home | Current Version | Previous Version | Graphics & Text | Print | Product List | Glossary On
Versions: 1 2 3 4 5 6 7 8 9 10 11 12 13 14 15 16 17 18 19 20 21 22 23 24 25 26 27 28 29 30 31 32 33 34 35 36 37 38 39 40 41 42 43 44 45 46 47 48 49 50
000
ASUS44 KMEG 231710
RWRTN
TENNESSEE HOURLY STATE WEATHER ROUNDUP
NATIONAL WEATHER SERVICE MEMPHIS TN
1200 PM CDT SUN APR 23 2017

TNZ002-004-019-021-049-052-054-088>092-231800-
WEST TENNESSEE

CITY           SKY/WX    TMP DP  RH WIND       PRES   REMARKS
MEMPHIS INTL   CLOUDY    56  45  66 NW14      29.96S
NWS MEMPHIS      N/A     52 N/A N/A MISG        N/A
JACKSON        RAIN      49  48  97 N12       29.94S FOG
DYERSBURG      LGT RAIN  51  47  86 E8        29.96F
SOMERVILLE     CLOUDY    50  48  93 NW13      29.93F
UNION CITY     CLOUDY    52  46  82 NE10      29.94S
BOLIVAR        MOSUNNY   50  48  93 NW7       29.92F FOG
PARIS          CLOUDY    48  43  81 N9        29.92S
HUNTINGDON     CLOUDY    50  45  81 VRB5      29.92R
LEXINGTON      CLOUDY    48  48 100 N9        29.90S FOG
SAVANNAH       PTSUNNY   50  48  93 N10G17    29.89S
$$

TNZ008-025-027-028-033-062-065-066-231800-
NORTH MIDDLE TENNESSEE

CITY           SKY/WX    TMP DP  RH WIND       PRES   REMARKS
NASHVILLE      RAIN      52  50  93 N12       29.86S FOG
PORTLAND       CLOUDY    46  46 100 N7G15     29.88R FOG
CLARKSVILLE    LGT RAIN  48  43  82 N13       29.92R
SMYRNA         RAIN      53  52  96 N10       29.85F
COOKEVILLE     PTSUNNY   55  54  94 N6        29.82S
CROSSVILLE     LGT RAIN  53  51  93 NE8       29.82S
$$

TNZ061-075-076-078-094-096-097-231800-
SOUTH MIDDLE TENNESSEE

CITY           SKY/WX    TMP DP  RH WIND       PRES   REMARKS
FAYETTEVILLE   PTSUNNY   54  54 100 VRB6      29.82F
TULLAHOMA      CLOUDY    54  54 100 NW5       29.83R
WINCHESTER     CLOUDY    54  54 100 VRB3      29.82S
MCMINNVILLE    CLOUDY    54  54 100 CALM      29.83S
COLUMBIA       CLOUDY   N/A N/A N/A VRB5      29.84S
SHELBYVILLE    CLOUDY    55  54  94 NW5       29.84R
$$

TNZ017-018-042-046-047-231800-
NORTHEAST TENNESSEE

CITY           SKY/WX    TMP DP  RH WIND       PRES   REMARKS
TRI CITIES     RAIN      52  51  97 NE5       29.92F FOG
ELIZABETHTON   RAIN      54  50  87 E10       29.93F
$$

TNZ012-013-036-069-073-074-231800-
CENTRAL EAST TENNESSEE

CITY           SKY/WX    TMP DP  RH WIND       PRES   REMARKS
KNOXVILLE      LGT RAIN  60  58  92 NE14      29.77F
OAK RIDGE      LGT RAIN  59  53  80 NE8G18    29.79F
DOWNTOWN KNOXV CLOUDY    61  59  94 VRB5      29.80F FOG
GATLINBURG     PTSUNNY   59  57  94 E6        29.80S
MORRISTOWN     CLOUDY    55  55 100 E13G18    29.83S FOG
JACKSBORO      PTSUNNY   55  54  94 NE6       29.85F FOG
$$

TNZ083-085-099-231800-
SOUTHEAST TENNESSEE

CITY           SKY/WX    TMP DP  RH WIND       PRES   REMARKS
CHATTANOOGA    HVY RAIN  61  59  93 W7        29.79F FOG
$$

SKY/WX REPORTED AS FAIR MEANS FEW OR NO CLOUDS BELOW
12 THOUSAND FEET.




USA.gov is the U.S. government's official web portal to all federal, state and local government web resources and services.